Location: San Gennaro Vesuviano
(40.8833°N, 14.5333°E)
Time: 21:48:57
(UTC+00:00)

ARIANE 5 R/B - Pass Details

Date: 22 April 2021
Orbit: 620 x 656 km, 98.1° (Epoch: 06 May)

Event Time Altitude Azimuth Distance (km) Brightness Sun altitude
Exits shadow 20:04:04 50° 64° (ENE) 810 2.9 -22.9°
Drops below altitude 10° 20:08:08 10° 358° (N) 2,016 5.8 -23.5°
Sets 20:10:22 0° 353° (N) 2,923 6.8 -23.8°
